FREGAT DEB, 45999

Orbit data source: Space-Track

FREGAT DEB, 45999 is space debris in LEO originally from a launch on Mon, 18 Jul 2011 UTC launched from the Tyuratam Missile And Space Complex (TTMTR). Debris objects in space refer to the collection of defunct objects orbiting the Earth. Examples of debris include non-operational satellites, rocket bodies, and fragments generated from explosions, collisions, or faulty payload assembly.

Loading next visibility...
Identifier
45999, 2011-037HA
Orbit
LEO
Country
Flag of CISCIS
Related business
Manufacturer
Lavochkin
Mission
Spacecraft
Bus & Motor
Unknown
Mass
Unknown
Launch date (UTC)
2011-07-18 (15 years ago)
Launch vehicle
Unknown
Launch site
Tyuratam Missile And Space Complex (TTMTR)
Object type
Payload
Rocket body
Debris
Shape & HBR
Unknown shape, 1.1 m
Radar Cross Section
Small (<0.1 m²)

Expand to show TLE details & history
Last TLE update: 2 months ago

TLE from 2 months ago
0 FREGAT DEB
1 45999U 11037HA  25355.32227006 -.00000155  00000-0 -25913-3 0  9996
2 45999  51.4671 327.4710 2137121 172.5298 191.3547 10.06247184198255
Epoch: 2025-12-21T07:44Z
TLE epoch observation values (Epoch: 2025-12-21T07:44:04.133Z)
Latitude
0.00001°
Longitude
121.31741°
Altitude
4,596.338 km
Speed
5.355 km/s
True Right ascension
21h 49m 53s
True Declination
0° 00' 00"
Sunlit
Object was in daylight at epoch
Visualization orbit readout
Latitude
Unknown
Longitude
Unknown
Altitude
Unknown
Speed
Unknown
Apparent Right ascension
Unknown
Apparent Declination
Unknown
Sunlit
N/A
Visualization observer readout
Local Sidereal Time
11:38:45
Azimuth
Unknown
Elevation
Unknown
Doppler factor
Unknown
Orbital elements
Apogee altitude
4,622.095 km
Perigee altitude
748.223 km
Semi-major axis
9,063.296 km
Eccentricity
0.21371
Inclination
51.4671°
RAAN
327.471°
Arg. of periapsis
172.5298°
True anomaly
187.54177°
Mean anomaly
191.3547°
Eccentric anomaly
189.36268°
Mean motion
2.51544 °/min
Orbital period
143.12 mins
BSTAR
-0.00025913
Loading maneuver chart data...
Computing Atmospheric mass density...
Loading historical data...
Loading historical data...
Loading historical data...
Loading historical data...
Loading historical data...
Loading historical data...
Loading historical data...

Documentation

Showing up to 5 results
|